Weather History for Guatemala Aeropuertola Aurora, Guatemala

Change the Weather History Date:

Thursday, August 1, 2013

  Actual Average Record
Temperature  
Mean Temperature 69 °F -  
Max Temperature 77 °F 75 °F - ()
Min Temperature 61 °F 60 °F - ()
Cooling Degree Days 4    
Growing Degree Days 19 (Base 50)    
Moisture  
Dew Point 59 °F    
Average Humidity 75    
Maximum Humidity 94    
Minimum Humidity 47    
Precipitation  
Precipitation 0.00 in - - ()
Sea Level Pressure  
Sea Level Pressure 30.28 in    
Wind  
Wind Speed 7 mph ()    
Max Wind Speed 14 mph    
Max Gust Speed -    
Visibility 6.2 miles    
Events Thunderstorm    
T = Trace of Precipitation, MM = Missing Value Source: Averaged Metar Reports

Daily Weather History Graph

Daily Weather History Graph

Search for Another Location

Airport:

Trip Planner

Search our weather history database for the weather conditions in past years. The results will help you decide how hot, cold, wet, or windy it might be!

Date:

Astronomy

Aug. 01, 2013 Rise Set
Actual Time 5:45 AM CST 6:31 PM CST
Civil Twilight 5:22 AM CST 6:53 PM CST
Nautical Twilight 4:56 AM CST 7:20 PM CST
Astronomical Twilight 4:29 AM CST 7:47 PM CST
Moon 1:26 AM CST (8/1) 2:33 PM CST (8/1)
Length of Visible Light 13h 30m
Length of Day
12h 45m
Waning Crescent, 23% of the Moon is Illuminated
Aug 1
Waning Crescent
Aug 6
New
Aug 14
First Quarter
Aug 20
Full
Aug 28
Last Quarter

Hourly Weather History & Observations

Time (CST) Temp. Dew Point Humidity Pressure Visibility Wind Dir Wind Speed Gust Speed Precip Events Conditions
12:00 AM 64.4 °F 59.0 °F 83% 30.36 in - North 4.6 mph - N/A   Clear
1:00 AM 62.6 °F 59.0 °F 88% 30.33 in 6.2 mi North 4.6 mph - N/A   Partly Cloudy
2:00 AM 62.6 °F 60.8 °F 94% 30.30 in 6.2 mi North 6.9 mph - N/A   Mostly Cloudy
3:00 AM 62.6 °F 60.8 °F 94% 30.30 in 6.2 mi NNE 9.2 mph - N/A   Scattered Clouds
4:00 AM 62.6 °F 60.8 °F 94% 30.30 in 6.2 mi NNE 11.5 mph - N/A   Mostly Cloudy
5:00 AM 62.6 °F 59.0 °F 88% 30.30 in 6.2 mi NNE 11.5 mph - N/A   Mostly Cloudy
6:00 AM 62 °F 60 °F 90% 29.99 in 25 mi NNE 9.2 mph - -   Overcast
6:00 AM 62.6 °F 60.8 °F 94% 30.30 in 6.2 mi NNE 9.2 mph - N/A   Overcast
6:17 AM - - N/A% - 6.2 mi North 9.2 mph - N/A   Scattered Clouds
7:00 AM 62.6 °F 59.0 °F 88% 30.30 in 6.2 mi NNE 9.2 mph - N/A   Mostly Cloudy
8:00 AM 66.2 °F 59.0 °F 78% 30.33 in 6.2 mi North 9.2 mph - N/A   Scattered Clouds
9:00 AM 69.8 °F 59.0 °F 68% 30.33 in 6.2 mi North 9.2 mph - N/A   Scattered Clouds
10:00 AM 69.8 °F 59.0 °F 68% 30.33 in 6.2 mi North 9.2 mph - N/A   Mostly Cloudy
11:00 AM 73.4 °F 59.0 °F 61% 30.33 in 6.2 mi NNE 11.5 mph - N/A   Scattered Clouds
12:00 PM 75.2 °F 57.2 °F 53% 30.30 in 6.2 mi North 13.8 mph - N/A   Scattered Clouds
1:00 PM 77.0 °F 57.2 °F 50% 30.30 in 6.2 mi NNE 9.2 mph - N/A   Scattered Clouds
2:00 PM 77.0 °F 57.2 °F 50% 30.27 in 6.2 mi North 13.8 mph - N/A   Partly Cloudy
3:00 PM 77.0 °F 57.2 °F 50% 30.24 in 6.2 mi NNE 9.2 mph - N/A   Partly Cloudy
4:00 PM 77.0 °F 55.4 °F 47% 30.21 in 6.2 mi North 13.8 mph - N/A   Partly Cloudy
5:00 PM 77.0 °F 59.0 °F 54% 30.21 in 6.2 mi North 11.5 mph - N/A   Partly Cloudy
5:41 PM - - N/A% - 6.2 mi South 4.6 mph - N/A Thunderstorm Thunderstorm
6:00 PM 71.6 °F 62.6 °F 73% 30.24 in 6.2 mi South 5.8 mph - N/A Thunderstorm Thunderstorm
6:30 PM - - N/A% - 6.2 mi SSW 5.8 mph - N/A   Scattered Clouds
7:00 PM 68.0 °F 60.8 °F 78% 30.27 in - North - - N/A   Partly Cloudy
8:00 PM 68.0 °F 62.6 °F 83% 30.27 in 6.2 mi Calm Calm - N/A   Scattered Clouds
8:25 PM - - N/A% - 6.2 mi NNE 9.2 mph - N/A   Scattered Clouds
9:00 PM 68.0 °F 60.8 °F 78% 30.30 in 6.2 mi NNE 6.9 mph - N/A   Scattered Clouds
10:00 PM 66.2 °F 60.8 °F 83% 30.33 in 6.2 mi North 9.2 mph - N/A   Scattered Clouds
11:00 PM 66.2 °F 60.8 °F 83% 30.33 in 6.2 mi North 6.9 mph - N/A   Partly Cloudy